{"data":{"norad_id":65829,"epoch":"2026-09-20T06:27:58.736448Z","epoch_age_seconds":125997,"freshness":"FRESH","line1":"1 65829U 25221G   26263.26942982  .00013176  00000+0  43541-3 0  9990","line2":"2 65829  53.1600 266.0598 0001239  77.1947 282.9193 15.31715173 55810","mean_motion":15.31715173,"eccentricity":0.0001239,"inclination_deg":53.16,"raan_deg":266.0598,"arg_perigee_deg":77.1947,"mean_anomaly_deg":282.9193,"bstar":0.00043541,"rev_number":5581,"period_min":94.012256676914,"perigee_km":469.84619541979,"apogee_km":471.54333593132,"semimajor_km":6848.8317656756,"source":"CELESTRAK","updated_at":"2026-09-21T09:00:35.720125Z"}}